Date,TemperatureHighF,TemperatureAvgF,TemperatureLowF,DewpointHighF,DewpointAvgF,DewpointLowF,HumidityHigh,HumidityAvg,HumidityLow,PressureMaxIn,PressureMinIn,WindSpeedMaxMPH,WindSpeedAvgMPH,GustSpeedMaxMPH,PrecipitationSumIn
2013-1-1,48,45,41,48,44,38,99,98,83,29.96,29.82,4,0,0,1.05
2013-1-2,43,40,38,43,38,36,99,92,82,30.05,29.87,4,1,0,0.00
2013-1-3,47,38,29,36,32,27,98,80,50,30.23,30.02,5,1,0,0.00
2013-1-4,49,34,25,28,26,20,99,79,36,30.30,30.19,5,1,0,0.00
2013-1-5,50,36,25,40,30,25,99,81,42,30.27,30.10,5,1,0,0.02
2013-1-6,51,42,36,42,38,32,99,86,61,30.15,30.00,4,1,0,0.05
2013-1-7,53,36,26,36,30,25,99,83,45,30.26,30.14,5,1,0,0.00
2013-1-8,59,40,27,46,36,27,99,88,55,30.26,30.12,3,0,0,0.00
2013-1-9,56,50,46,55,50,45,99,98,94,30.29,30.16,3,0,0,0.13
2013-1-10,63,54,50,59,53,49,99,96,87,30.27,29.95,5,1,0,0.02
2013-1-11,68,64,61,65,62,59,99,96,87,29.97,29.89,9,2,0,0.51
2013-1-12,72,64,59,68,63,59,99,97,81,29.96,29.82,4,1,0,0.06
2013-1-13,69,63,54,66,62,54,99,97,85,29.90,29.78,5,1,0,1.64
2013-1-14,52,43,38,51,42,38,99,99,95,30.11,29.91,6,2,0,2.33
2013-1-15,43,42,39,43,41,38,99,99,99,30.01,29.82,4,1,0,2.18
2013-1-16,50,45,42,50,45,41,99,99,98,29.91,29.77,4,1,0,0.20
2013-1-17,43,40,36,43,38,29,99,93,75,30.18,29.60,10,3,0,0.34
2013-1-18,52,35,26,35,30,26,99,85,38,30.40,30.19,5,1,0,0.00
2013-1-19,57,37,25,36,30,25,99,81,38,30.28,30.04,5,1,0,0.00
2013-1-20,63,43,31,43,36,31,99,79,42,30.07,29.95,5,1,0,0.00
2013-1-21,50,37,27,35,24,16,99,64,30,30.11,29.94,7,2,0,0.00
2013-1-22,42,32,24,17,12,8,61,45,28,30.24,30.08,7,2,0,0.00
2013-1-23,54,38,31,33,23,14,95,55,37,30.23,30.00,5,1,0,0.00
2013-1-24,50,39,26,42,24,11,96,58,30,30.24,30.01,7,2,0,0.00
2013-1-25,36,33,29,35,26,-13,99,80,13,30.21,29.98,5,1,0,0.13
2013-1-26,52,38,29,40,34,29,99,88,54,30.17,30.03,4,1,0,0.01
2013-1-27,52,41,31,39,35,31,99,80,60,30.29,30.17,5,1,0,0.00
2013-1-28,61,50,44,51,42,34,99,76,66,30.22,30.08,7,1,0,0.00
2013-1-29,59,51,40,56,50,40,99,96,88,30.10,29.69,2,0,0,0.00
2013-1-30,66,56,41,66,54,33,99,94,72,29.68,29.38,12,3,0,2.14
2013-1-31,50,40,35,32,27,24,83,61,39,29.96,29.67,16,4,0,0.00
2013-2-1,45,32,23,35,18,9,83,58,29,30.28,29.90,10,3,0,0.00
2013-2-2,37,29,20,34,26,17,99,87,67,30.23,29.94,4,1,0,0.05
2013-2-3,55,39,28,38,30,28,99,76,38,30.01,29.85,8,2,0,0.00
2013-2-4,50,37,25,36,29,25,99,77,43,30.00,29.81,4,1,0,0.00
2013-2-5,65,48,40,45,41,34,99,79,41,29.89,29.77,6,1,0,0.00
2013-2-6,68,46,32,45,38,32,99,79,33,30.07,29.88,5,1,0,0.00
2013-2-7,53,46,40,46,41,38,97,82,59,29.97,29.79,3,0,0,0.00
2013-2-8,57,46,38,50,42,32,99,84,55,30.10,29.75,8,2,0,0.08
2013-2-9,57,42,32,37,32,29,89,69,38,30.19,30.06,7,2,0,0.00
2013-2-10,57,48,39,52,41,30,99,82,37,30.08,29.84,6,2,0,0.94
2013-2-11,59,52,41,56,48,41,99,89,60,29.99,29.83,5,1,0,0.13
2013-2-12,53,44,34,43,38,33,99,81,49,30.00,29.68,4,1,0,0.09
2013-2-13,50,44,40,47,41,35,99,91,75,29.85,29.53,8,2,0,0.11
2013-2-14,60,44,31,40,36,30,99,75,40,29.93,29.83,5,1,0,0.00
2013-2-15,60,43,31,43,35,30,99,78,48,29.94,29.83,7,2,0,0.00
2013-2-16,42,34,28,31,22,12,84,62,36,30.02,29.87,10,3,0,0.00
2013-2-17,50,31,18,24,19,14,98,66,26,30.13,30.02,6,1,0,0.00
2013-2-18,62,42,23,34,27,22,99,62,33,30.15,29.82,10,2,0,0.00
2013-2-19,56,45,38,45,31,14,99,65,24,30.04,29.79,9,3,0,0.75
2013-2-20,44,34,26,26,20,14,94,59,29,30.11,30.01,5,1,0,0.00
2013-2-21,54,39,28,42,28,19,99,66,34,30.07,29.78,5,2,0,1.00
2013-2-22,51,46,40,46,44,40,99,94,82,29.94,29.84,6,2,0,0.32
2013-2-23,58,48,39,51,46,39,99,94,76,29.87,29.67,3,0,0,0.31
2013-2-24,63,43,31,42,34,30,99,77,31,29.92,29.77,5,1,0,0.00
2013-2-25,58,46,35,44,34,29,90,65,45,29.88,29.60,5,1,0,0.00
2013-2-26,53,46,41,46,42,37,99,89,69,29.60,29.35,7,3,0,0.87
2013-2-27,57,45,39,38,36,32,96,71,45,29.73,29.59,9,4,0,0.02
2013-2-28,42,39,37,32,29,26,74,66,57,29.87,29.69,7,3,0,0.00
2013-3-1,42,38,35,34,31,28,93,75,65,29.87,29.82,5,2,0,0.00
2013-3-2,40,36,32,33,29,24,92,77,64,29.93,29.80,8,3,0,0.00
2013-3-3,44,33,24,25,23,19,95,68,39,29.97,29.90,8,3,0,0.00
2013-3-4,57,39,24,36,28,22,99,69,32,30.03,29.80,5,1,0,0.00
2013-3-5,58,47,37,55,43,28,99,86,65,29.84,29.49,14,2,0,0.98
2013-3-6,44,37,33,32,27,23,90,69,59,30.12,29.78,16,5,0,0.00
2013-3-7,52,39,32,35,30,28,88,72,52,30.18,30.07,8,3,0,0.00
2013-3-8,61,41,30,33,29,24,93,68,26,30.24,30.11,7,2,0,0.00
2013-3-9,63,47,35,38,34,31,88,63,35,30.16,29.99,4,1,0,0.00
2013-3-10,73,58,44,43,38,34,83,52,25,29.99,29.80,6,2,0,0.00
2013-3-11,61,55,42,56,50,39,99,84,53,29.83,29.57,7,2,0,1.17
2013-3-12,61,46,38,40,34,30,92,66,34,29.97,29.76,7,2,0,0.00
2013-3-13,51,39,30,36,28,21,99,68,37,30.18,29.94,11,3,0,0.00
2013-3-14,56,39,28,40,23,18,96,56,23,30.28,30.10,6,2,0,0.01
2013-3-15,76,52,30,48,40,30,99,70,35,30.13,29.75,7,2,0,0.00
2013-3-16,79,67,57,52,47,43,68,50,34,29.78,29.62,8,4,0,0.00
2013-3-17,74,63,51,56,50,47,92,65,43,29.82,29.68,7,2,0,0.00
2013-3-18,63,56,49,58,54,48,99,94,83,29.74,29.60,7,1,0,0.70
2013-3-19,64,51,34,53,34,20,99,60,24,29.98,29.73,9,2,0,0.00
2013-3-20,59,46,36,33,25,16,79,48,23,30.01,29.77,12,2,0,0.00
2013-3-21,51,36,26,31,17,10,75,48,25,29.90,29.79,7,3,0,0.00
2013-3-22,48,39,29,36,25,19,81,57,42,29.93,29.82,4,1,0,0.00
2013-3-23,55,45,39,49,42,35,99,90,72,29.86,29.60,5,1,0,0.24
2013-3-24,61,50,43,55,47,33,99,89,63,29.68,29.24,12,2,0,1.81
2013-3-25,42,37,34,32,28,25,80,68,60,29.92,29.50,11,5,0,0.00
2013-3-26,40,35,33,31,28,27,89,78,67,30.16,29.90,8,3,0,0.00
2013-3-27,58,40,27,31,28,26,99,66,30,30.22,30.10,6,2,0,0.00
2013-3-28,64,42,27,36,31,27,99,69,32,30.22,30.08,8,1,0,0.00
2013-3-29,57,44,32,43,37,32,99,78,40,30.20,30.07,6,1,0,0.00
2013-3-30,66,50,44,55,47,43,99,90,54,30.08,29.81,5,1,0,0.39
2013-3-31,66,58,53,61,57,53,99,95,72,29.82,29.68,5,1,0,0.71
2013-4-1,72,57,41,55,45,38,99,70,37,29.91,29.73,7,2,0,0.00
2013-4-2,59,48,38,40,30,25,80,52,28,30.10,29.92,5,2,0,0.00
2013-4-3,58,50,39,32,28,25,64,45,30,30.09,29.98,5,2,0,0.00
2013-4-4,49,44,42,46,43,31,99,96,50,30.00,29.80,3,1,0,1.74
2013-4-5,75,52,43,49,43,37,99,76,27,29.94,29.81,4,1,0,0.06
2013-4-6,75,54,36,48,41,36,99,69,30,30.04,29.86,7,1,0,0.02
2013-4-7,81,60,45,52,47,43,96,67,32,30.01,29.84,9,2,0,0.00
2013-4-8,81,64,52,59,54,49,97,73,43,29.94,29.83,8,2,0,0.00
2013-4-9,85,65,50,62,56,49,99,76,44,30.03,29.82,5,1,0,0.00
2013-4-10,89,69,52,63,58,52,99,72,39,29.95,29.67,8,1,0,0.00
2013-4-11,83,67,59,68,62,57,99,84,56,29.72,29.36,8,2,0,1.63
2013-4-12,72,59,47,62,48,39,99,72,34,29.80,29.44,7,2,0,0.02
2013-4-13,84,58,41,47,43,36,99,66,20,29.92,29.78,5,1,0,0.00
2013-4-14,65,55,45,58,50,44,99,87,53,29.87,29.75,4,0,0,0.09
2013-4-15,86,65,55,62,58,55,99,81,46,29.91,29.75,5,1,0,0.01
2013-4-16,84,68,58,70,64,57,99,86,59,30.06,29.92,6,1,0,0.00
2013-4-17,88,68,61,70,64,61,99,89,54,30.04,29.89,6,1,0,0.98
2013-4-18,83,69,56,67,61,56,99,78,47,29.90,29.61,7,2,0,0.01
2013-4-19,72,58,45,67,51,36,99,79,54,29.95,29.48,7,3,0,1.51
2013-4-20,70,50,33,42,36,32,99,66,28,30.10,29.95,5,1,0,0.00
2013-4-21,73,54,41,48,42,37,95,66,32,30.22,30.04,5,1,0,0.00
2013-4-22,79,57,42,51,46,42,99,71,28,30.17,29.93,5,1,0,0.00
2013-4-23,84,60,43,54,48,40,99,70,35,30.08,29.83,4,1,0,0.00
2013-4-24,71,60,49,64,55,43,97,85,73,30.08,29.84,6,2,0,0.05
2013-4-25,77,52,40,44,39,31,95,66,21,30.20,30.06,5,1,0,0.00
2013-4-26,74,56,40,54,44,39,99,69,33,30.23,30.07,5,1,0,0.39
2013-4-27,60,54,52,58,54,52,99,99,93,30.21,29.94,3,0,0,1.39
2013-4-28,61,58,54,60,57,54,99,99,99,29.95,29.73,8,1,0,2.04
2013-4-29,82,64,55,62,58,54,99,84,50,29.87,29.73,4,1,0,0.00
2013-4-30,87,64,50,64,57,50,99,81,38,29.92,29.79,5,1,0,0.00
2013-5-1,78,65,54,68,60,54,99,85,64,30.02,29.90,3,0,0,0.00
2013-5-2,83,65,52,66,59,52,99,82,50,30.01,29.90,4,1,0,0.00
2013-5-3,72,63,55,62,58,55,99,85,65,29.94,29.77,6,1,0,0.01
2013-5-4,62,55,50,57,54,50,99,97,76,29.78,29.71,4,1,0,3.70
2013-5-5,69,54,48,57,51,47,99,93,59,29.73,29.56,5,1,0,1.60
2013-5-6,60,52,46,55,51,45,99,96,75,29.74,29.61,4,1,0,0.33
2013-5-7,81,60,47,59,52,46,99,81,42,29.81,29.71,4,1,0,0.00
2013-5-8,83,63,50,66,58,50,99,85,47,29.89,29.79,3,0,0,0.00
2013-5-9,90,68,54,66,59,53,99,78,38,29.95,29.83,5,1,0,0.00
2013-5-10,77,66,56,65,60,56,99,83,63,29.90,29.75,5,1,0,0.00
2013-5-11,78,68,56,66,62,53,99,82,56,29.83,29.70,5,1,0,0.00
2013-5-12,74,59,49,53,42,34,99,59,26,29.99,29.82,5,2,0,0.00
2013-5-13,80,56,39,45,39,34,99,61,23,30.12,29.94,5,1,0,0.00
2013-5-14,89,64,43,59,51,42,99,69,36,30.10,29.86,4,1,0,0.00
2013-5-15,92,69,55,66,59,55,99,73,33,30.01,29.80,5,1,0,0.00
2013-5-16,90,71,58,68,62,56,98,76,43,29.91,29.77,7,1,0,0.00
2013-5-17,81,69,59,70,64,58,99,87,64,29.93,29.81,4,0,0,0.09
2013-5-18,80,70,65,74,69,64,99,95,79,29.88,29.79,4,1,0,0.95
2013-5-19,71,66,60,71,66,59,99,99,99,29.94,29.75,6,1,0,3.22
2013-5-20,92,70,57,76,66,57,99,89,56,29.95,29.79,3,0,0,0.00
2013-5-21,92,73,61,76,68,61,99,85,56,29.88,29.69,4,1,0,0.00
2013-5-22,87,71,64,77,68,63,99,90,60,29.78,29.64,5,0,0,1.13
2013-5-23,84,71,61,70,62,56,99,77,43,29.85,29.72,9,2,0,0.05
2013-5-24,85,66,53,57,54,49,98,68,30,30.10,29.85,6,1,0,0.00
2013-5-25,89,63,48,57,50,39,99,71,25,30.20,30.00,4,1,0,0.00
2013-5-26,92,66,52,63,56,52,99,75,37,30.12,29.96,4,1,0,0.00
2013-5-27,88,70,56,68,61,55,99,77,44,30.07,29.89,6,1,0,0.00
2013-5-28,96,74,61,67,63,60,99,72,34,30.01,29.88,8,1,0,0.00
2013-5-29,93,74,61,71,64,59,96,74,36,30.03,29.89,4,1,0,0.00
2013-5-30,86,74,63,71,67,62,99,81,57,30.05,29.89,6,1,0,0.00
2013-5-31,86,75,65,72,68,64,99,80,60,30.00,29.85,5,1,0,0.00
2013-6-1,86,75,68,78,70,65,99,86,64,29.89,29.76,7,1,0,0.23
2013-6-2,85,74,68,75,71,67,99,91,64,29.80,29.67,4,1,0,0.42
2013-6-3,89,73,64,72,66,61,99,81,44,29.81,29.69,4,0,0,0.01
2013-6-4,92,71,59,68,63,58,99,79,43,29.88,29.77,4,1,0,0.00
2013-6-5,84,70,64,75,68,62,99,94,72,29.86,29.72,6,0,0,1.39
2013-6-6,86,73,65,75,70,64,99,90,68,29.76,29.55,4,0,0,0.00
2013-6-7,85,71,65,73,69,64,99,93,63,29.69,29.53,2,0,0,0.62
2013-6-8,85,73,65,73,69,65,99,88,65,29.87,29.68,4,0,0,0.01
2013-6-9,84,72,66,77,70,65,99,94,72,29.91,29.76,3,0,0,0.79
2013-6-10,93,76,68,71,69,64,99,82,43,29.80,29.70,5,1,0,0.46
2013-6-11,100,79,68,78,72,68,99,83,43,29.86,29.76,4,1,0,0.46
2013-6-12,98,80,70,80,75,70,99,85,49,29.90,29.75,5,0,0,0.00
2013-6-13,91,80,71,77,73,67,95,79,61,29.78,29.57,8,2,0,0.00
2013-6-14,93,74,61,68,63,59,97,72,40,29.85,29.71,4,1,0,0.00
2013-6-15,97,74,61,71,64,60,99,75,39,29.97,29.82,5,1,0,0.00
2013-6-16,93,74,64,74,68,63,99,83,53,29.96,29.80,3,0,0,0.31
2013-6-17,88,74,69,77,71,68,99,90,70,29.88,29.75,4,0,0,0.10
2013-6-18,86,74,68,76,71,66,99,90,67,29.78,29.66,5,1,0,0.74
2013-6-19,97,74,62,73,68,62,99,82,42,29.90,29.77,6,1,0,0.00
2013-6-20,92,74,66,74,69,65,99,87,53,30.02,29.90,6,0,0,0.16
2013-6-21,92,75,67,74,69,65,99,85,49,30.09,29.94,3,0,0,0.00
2013-6-22,96,76,67,72,68,66,99,79,40,30.07,29.87,3,0,0,0.00
2013-6-23,97,76,65,75,69,64,99,82,45,30.02,29.87,5,0,0,0.00
2013-6-24,92,78,68,76,71,67,99,81,55,30.05,29.88,4,1,0,0.00
2013-6-25,97,80,70,79,73,69,98,82,55,29.98,29.81,3,1,0,0.00
2013-6-26,96,81,70,77,73,70,99,79,49,29.88,29.69,8,1,0,0.00
2013-6-27,91,80,73,79,73,68,99,80,60,29.75,29.60,7,2,0,0.19
2013-6-28,91,77,68,77,72,67,99,86,56,29.66,29.47,6,1,0,0.08
2013-6-29,94,77,68,72,67,60,99,76,36,29.53,29.45,6,1,0,0.03
2013-6-30,97,76,63,69,64,60,99,73,37,29.62,29.49,4,1,0,0.31
2013-7-1,84,72,64,74,68,63,99,90,64,29.73,29.59,7,0,0,0.69
2013-7-2,88,74,66,75,69,66,99,87,55,29.86,29.72,6,1,0,0.07
2013-7-3,76,72,68,74,70,68,99,96,88,29.97,29.87,3,0,0,0.07
2013-7-4,78,71,68,75,70,68,99,97,86,29.96,29.87,3,0,0,1.55
2013-7-5,76,72,69,74,71,68,99,98,90,29.99,29.91,5,1,0,0.45
2013-7-6,73,71,69,73,70,68,99,99,96,29.97,29.92,3,0,0,2.47
2013-7-7,83,73,68,77,72,68,99,96,82,29.99,29.90,4,0,0,1.37
2013-7-8,94,77,71,81,74,70,99,92,66,30.03,29.90,3,0,0,0.01
2013-7-9,96,80,72,81,75,71,99,88,62,29.99,29.86,3,0,0,0.00
2013-7-10,92,78,64,80,75,64,99,90,66,29.91,29.72,4,0,0,0.15
2013-7-11,94,76,70,78,72,8,99,89,5,29.81,29.68,3,0,0,0.37
2013-7-12,92,75,67,74,70,64,99,85,52,29.80,29.72,5,1,0,0.00
2013-7-13,87,73,62,75,68,62,99,86,64,29.89,29.77,6,1,0,0.00
2013-7-14,97,77,69,77,73,69,99,89,53,30.01,29.88,3,1,0,0.23
2013-7-15,92,77,68,78,72,68,99,87,58,30.12,30.01,4,1,0,0.12
2013-7-16,95,78,69,78,74,69,99,89,58,30.15,30.04,3,0,0,0.10
2013-7-17,95,79,69,81,74,69,99,86,59,30.12,29.96,4,1,0,0.02
2013-7-18,95,80,70,80,73,70,99,83,59,30.05,29.86,3,0,0,0.02
2013-7-19,100,81,72,80,74,71,99,81,53,29.94,29.77,4,0,0,0.01
2013-7-20,93,79,70,77,73,68,99,83,50,29.85,29.71,4,0,0,0.00
2013-7-21,89,77,71,78,74,71,99,90,65,29.84,29.74,6,0,0,0.29
2013-7-22,89,76,70,77,72,69,99,88,58,29.81,29.66,6,1,0,0.00
2013-7-23,86,77,71,76,72,69,96,87,70,29.76,29.64,4,1,0,0.00
2013-7-24,90,76,69,78,72,67,99,88,63,29.71,29.63,4,0,0,0.15
2013-7-25,96,75,64,75,68,63,99,82,52,29.86,29.71,5,1,0,0.00
2013-7-26,94,75,62,74,67,61,99,80,48,29.91,29.78,4,1,0,0.00
2013-7-27,92,76,68,74,70,67,98,84,47,29.82,29.68,3,0,0,0.01
2013-7-28,85,75,67,73,68,63,97,81,57,29.90,29.74,4,1,0,0.00
2013-7-29,91,70,60,69,62,57,95,78,42,30.01,29.89,4,0,0,0.00
2013-7-30,87,73,63,74,67,62,98,84,56,30.07,29.92,3,0,0,0.00
2013-7-31,80,72,68,74,70,66,99,94,83,29.98,29.78,11,0,0,0.54
2013-8-1,94,79,69,74,72,68,99,81,51,29.81,29.75,3,0,0,0.00
2013-8-2,92,75,64,74,68,64,99,81,47,29.88,29.79,4,0,0,0.00
2013-8-3,85,75,66,76,70,65,99,87,67,29.89,29.81,7,0,0,0.00
2013-8-4,91,78,69,76,71,64,99,81,50,29.89,29.81,4,0,0,0.00
2013-8-5,92,74,62,71,64,-9,98,77,3,29.91,29.78,3,0,0,0.00
2013-8-6,87,76,69,78,71,68,99,87,66,29.82,29.76,5,0,0,0.28
2013-8-7,86,74,71,78,73,70,99,96,75,29.86,29.77,5,0,0,0.02
2013-8-8,92,77,71,80,74,71,99,91,69,29.87,29.77,3,0,0,0.13
2013-8-9,93,78,70,83,75,70,99,91,68,29.89,29.80,4,0,0,0.18
2013-8-10,90,78,72,79,75,72,99,91,66,29.95,29.88,4,0,0,0.18
2013-8-11,95,79,72,81,75,71,99,89,64,29.98,29.87,6,0,0,0.50
2013-8-12,89,77,70,80,74,70,99,92,65,29.94,29.79,7,1,0,2.10
2013-8-13,138,77,30,100,72,30,99,87,49,29.81,29.69,5,1,0,1.29
2013-8-14,89,73,64,72,67,60,99,83,50,29.87,29.75,6,1,0,0.00
2013-8-15,81,70,63,71,63,59,90,80,68,29.91,29.83,3,0,0,0.00
2013-8-16,75,69,63,68,64,60,94,85,71,29.93,29.87,3,0,0,0.01
2013-8-17,76,69,66,69,66,63,98,90,75,29.97,29.90,2,0,0,0.04
2013-8-18,78,70,66,75,69,66,99,96,84,30.01,29.92,3,0,0,0.42
2013-8-19,88,72,68,76,71,68,99,94,67,29.97,29.86,3,0,0,0.77
2013-8-20,92,76,68,77,72,68,99,89,62,30.00,29.89,3,0,0,0.00
2013-8-21,83,74,70,76,73,70,99,95,78,30.04,29.94,3,0,0,0.47
2013-8-22,86,76,70,78,73,70,99,93,71,30.01,29.88,4,0,0,0.11
2013-8-23,93,76,69,78,72,68,99,88,63,29.93,29.81,3,0,0,0.01
2013-8-24,92,75,67,78,71,66,99,88,63,30.06,29.89,5,1,0,0.01
2013-8-25,94,74,64,71,67,64,99,81,47,30.20,30.06,4,0,0,0.01
2013-8-26,95,73,61,72,66,61,99,82,44,30.16,29.96,4,0,0,0.00
2013-8-27,93,74,64,76,68,63,99,86,55,30.00,29.86,3,0,0,0.00
2013-8-28,96,76,66,79,72,66,99,88,59,29.91,29.80,3,0,0,0.00
2013-8-29,97,79,69,81,74,69,99,86,55,29.87,29.75,3,0,0,0.00
2013-8-30,90,76,71,80,75,71,99,95,71,29.85,29.74,4,0,0,0.37
2013-8-31,96,79,71,80,74,71,99,88,55,29.80,29.66,3,0,0,0.00
2013-9-1,89,76,71,81,74,71,99,94,74,29.76,29.66,5,0,0,0.32
2013-9-2,86,76,70,77,73,70,99,90,66,29.79,29.67,5,1,0,0.02
2013-9-3,92,78,69,78,72,65,99,84,53,29.83,29.69,3,0,0,0.00
2013-9-4,89,73,63,72,67,62,99,82,45,29.96,29.83,3,0,0,0.00
2013-9-5,90,71,62,72,65,61,99,84,51,30.00,29.92,4,0,0,0.00
2013-9-6,90,73,63,73,67,62,99,84,52,30.01,29.87,3,0,0,0.00
2013-9-7,91,74,64,76,69,63,99,85,50,29.97,29.81,4,0,0,0.00
2013-9-8,90,76,65,77,71,65,99,87,62,29.86,29.74,3,0,0,0.00
2013-9-9,91,78,70,78,73,70,99,87,58,29.94,29.81,4,0,0,0.00
2013-9-10,94,77,68,76,71,68,99,83,51,30.05,29.92,3,0,0,0.00
2013-9-11,91,76,68,74,70,67,99,84,50,30.07,29.91,3,0,0,0.00
2013-9-12,92,77,69,74,71,67,99,82,52,29.94,29.73,4,1,0,0.00
2013-9-13,87,72,62,70,62,53,99,74,37,29.80,29.70,4,1,0,0.00
2013-9-14,86,65,54,62,55,50,96,72,44,29.90,29.80,6,1,0,0.00
2013-9-15,86,68,56,68,62,56,99,83,48,30.01,29.90,5,0,0,0.00
2013-9-16,87,71,59,69,64,59,99,81,47,30.00,29.90,3,0,0,0.00
2013-9-17,84,73,66,69,64,60,87,75,57,30.05,29.93,4,1,0,0.00
2013-9-18,84,71,63,67,62,59,91,74,56,30.06,29.93,6,1,0,0.00
2013-9-19,88,71,59,71,64,59,99,82,52,30.04,29.87,3,0,0,0.00
2013-9-20,90,73,62,70,65,62,99,80,44,29.91,29.69,5,1,0,0.00
2013-9-21,74,68,59,70,66,59,99,95,83,29.72,29.57,4,0,0,1.79
2013-9-22,84,64,53,63,58,53,99,83,48,29.74,29.65,8,1,0,0.01
2013-9-23,85,66,55,67,60,55,99,84,51,29.86,29.74,4,0,0,0.00
2013-9-24,73,66,58,67,63,57,99,91,75,29.87,29.71,3,0,0,0.00
2013-9-25,70,67,65,68,66,64,99,97,93,29.71,29.66,2,0,0,0.47
2013-9-26,86,69,62,70,65,61,99,88,58,29.85,29.71,3,0,0,0.00
2013-9-27,82,67,57,66,61,57,99,85,46,30.00,29.85,5,0,0,0.00
2013-9-28,82,66,55,66,60,54,99,84,51,30.07,29.91,3,0,0,0.00
2013-9-29,78,64,53,63,58,53,99,84,51,29.99,29.84,3,0,0,0.01
2013-9-30,79,64,56,65,59,56,99,86,56,29.94,29.81,3,0,0,0.01
2013-10-1,83,67,56,70,63,56,99,87,60,30.01,29.87,3,0,0,0.00
2013-10-2,84,70,61,72,66,60,99,87,59,30.02,29.88,3,0,0,0.00
2013-10-3,87,73,63,71,66,62,99,82,50,29.97,29.84,3,0,0,0.00
2013-10-4,86,69,60,72,65,60,99,88,63,30.01,29.89,3,0,0,0.00
2013-10-5,89,72,64,72,67,63,99,85,53,29.96,29.81,4,0,0,0.00
2013-10-6,84,70,62,71,66,60,99,88,63,29.84,29.62,6,1,0,0.03
2013-10-7,74,61,55,58,54,50,99,79,46,29.90,29.73,5,1,0,0.03
2013-10-8,78,62,54,60,53,48,89,72,50,29.98,29.89,7,2,0,0.00
2013-10-9,80,64,54,64,59,54,99,86,58,30.05,29.92,5,1,0,0.00
2013-10-10,82,65,54,65,59,54,99,83,49,30.00,29.85,3,0,0,0.00
2013-10-11,82,62,50,63,55,49,99,81,38,29.96,29.81,3,0,0,0.00
2013-10-12,83,64,50,62,56,50,99,80,41,29.96,29.86,5,0,0,0.00
2013-10-13,83,65,52,64,58,52,99,82,45,30.08,29.96,4,0,0,0.00
2013-10-14,84,67,56,67,61,56,99,83,51,30.08,29.92,4,0,0,0.00
2013-10-15,74,66,60,62,61,59,99,82,65,29.99,29.87,6,0,0,0.00
2013-10-16,75,65,60,64,61,58,98,88,68,29.90,29.77,3,0,0,0.03
2013-10-17,75,65,53,69,62,51,99,90,71,29.84,29.69,9,1,0,0.16
2013-10-18,70,56,48,51,47,44,99,76,41,30.06,29.83,6,1,0,0.00
2013-10-19,73,57,48,52,49,41,89,74,44,30.03,29.88,5,1,0,0.00
2013-10-20,71,50,40,43,39,31,89,71,23,30.10,30.00,5,1,0,0.00
2013-10-21,73,53,38,50,42,34,89,70,31,30.11,29.96,4,0,0,0.00
2013-10-22,70,59,49,52,48,45,88,70,46,30.01,29.85,4,1,0,0.00
2013-10-23,58,50,38,46,37,27,89,64,32,30.10,29.84,7,2,0,0.00
2013-10-24,63,48,36,38,35,31,88,65,37,30.26,30.08,7,1,0,0.00
2013-10-25,55,42,32,31,26,22,83,56,28,30.43,30.26,7,1,0,0.00
2013-10-26,62,43,27,35,28,23,89,62,25,30.34,30.11,4,1,0,0.00
2013-10-27,65,55,48,49,43,34,83,63,46,30.14,30.06,3,0,0,0.00
2013-10-28,63,56,47,55,51,44,89,84,73,30.25,30.10,1,0,0,0.01
2013-10-29,73,60,53,58,54,50,89,80,57,30.31,30.17,4,0,0,0.00
2013-10-30,81,64,54,58,53,50,89,72,38,30.26,30.09,4,0,0,0.00
2013-10-31,74,65,58,62,57,53,84,75,61,30.12,29.72,6,1,0,0.04
2013-11-1,74,63,48,63,52,40,89,70,36,29.83,29.68,6,1,0,0.47
2013-11-2,68,52,42,48,39,30,89,66,25,30.09,29.83,6,1,0,0.00
2013-11-3,64,48,40,40,37,32,88,67,32,30.27,30.09,5,1,0,0.00
2013-11-4,68,49,36,44,36,32,89,67,26,30.39,30.28,6,1,0,0.00
2013-11-5,68,52,41,44,38,34,86,63,31,30.43,30.27,3,0,0,0.00
2013-11-6,75,60,47,55,50,40,87,71,49,30.29,30.04,5,1,0,0.01
2013-11-7,63,53,40,58,42,27,89,67,32,30.27,30.01,7,1,0,0.54
2013-11-8,60,46,35,33,25,11,86,50,15,30.36,30.24,5,1,0,0.00
2013-11-9,58,44,30,37,31,27,89,65,31,30.32,30.20,6,1,0,0.00
2013-11-10,71,52,40,44,36,22,89,60,16,30.30,30.19,4,1,0,0.00
2013-11-11,68,48,34,37,29,16,76,52,14,30.31,30.13,4,0,0,0.00
2013-11-12,53,43,31,40,27,12,73,54,34,30.50,30.12,9,3,0,0.00
2013-11-13,48,34,26,21,16,10,82,50,22,30.63,30.44,8,2,0,0.00
2013-11-14,60,36,21,28,18,1,89,59,9,30.47,30.26,5,1,0,0.00
2013-11-15,50,41,30,42,34,22,89,76,43,30.26,30.12,2,0,0,0.24
2013-11-16,56,50,45,52,46,42,89,87,79,30.20,30.08,2,0,0,0.01
2013-11-17,66,61,56,63,58,53,89,88,83,30.08,29.84,5,1,0,0.61
2013-11-18,67,57,44,63,40,26,89,58,22,30.14,29.85,8,2,0,0.22
2013-11-19,56,46,39,30,26,19,66,46,24,30.22,30.11,6,2,0,0.00
2013-11-20,62,44,30,38,30,21,89,64,22,30.29,30.14,4,0,0,0.00
2013-11-21,66,55,46,48,42,35,72,63,49,30.33,30.23,3,0,0,0.00
2013-11-22,60,56,53,54,51,47,89,85,73,30.29,30.16,3,0,0,0.15
2013-11-23,54,47,35,50,37,18,88,68,42,30.37,30.18,8,3,0,0.00
2013-11-24,41,31,24,19,11,3,59,45,21,30.53,30.37,7,3,0,0.00
2013-11-25,45,35,26,31,16,-2,86,50,14,30.44,30.17,4,0,0,0.45
2013-11-26,43,38,34,40,35,31,89,88,83,30.17,29.75,5,1,0,2.81
2013-11-27,38,33,25,34,22,14,84,65,47,30.29,29.80,10,4,0,0.00
2013-11-28,46,29,19,24,18,14,89,67,29,30.44,30.29,5,1,0,0.00
2013-11-29,53,34,23,30,22,18,89,68,26,30.55,30.44,5,1,0,0.00
2013-11-30,57,37,24,30,24,19,89,67,23,30.50,30.28,5,1,0,0.00
2013-12-1,58,42,26,37,30,22,89,64,36,30.28,29.99,4,0,0,0.00
2013-12-2,50,47,44,46,43,36,89,86,67,29.99,29.79,2,0,0,0.15
2013-12-3,53,51,49,50,48,46,89,89,89,29.86,29.80,2,0,0,0.01
2013-12-4,74,60,52,61,54,49,89,82,59,29.95,29.83,6,1,0,0.00
2013-12-5,76,67,61,65,62,58,89,84,69,29.99,29.87,5,1,0,0.00
2013-12-6,68,54,39,64,50,36,89,88,84,30.17,29.85,6,2,0,1.72
2013-12-7,44,39,37,36,34,32,86,81,72,30.36,30.17,6,3,0,0.00
2013-12-8,47,42,36,44,39,33,89,88,84,30.28,30.07,4,1,0,1.26
2013-12-9,56,48,41,49,43,37,89,85,74,30.15,30.01,3,1,0,0.47
2013-12-10,44,37,26,38,30,22,89,78,50,30.34,29.98,7,2,0,0.40
2013-12-11,51,33,22,32,25,18,89,74,32,30.43,30.30,3,0,0,0.00
2013-12-12,45,32,24,24,19,8,83,61,24,30.50,30.37,6,2,0,0.00
2013-12-13,45,33,21,30,23,17,89,69,34,30.39,30.12,5,0,0,0.00
2013-12-14,47,42,37,44,38,28,89,85,68,30.14,29.79,7,1,0,0.96
2013-12-15,45,37,32,39,30,26,81,75,63,30.22,29.90,9,2,0,0.00
2013-12-16,56,39,29,33,29,25,88,71,34,30.23,30.11,5,1,0,0.00
2013-12-17,62,45,31,35,30,24,89,62,31,30.23,30.02,9,2,0,0.00
2013-12-18,55,36,25,26,22,12,88,59,18,30.34,30.23,5,1,0,0.00
2013-12-19,64,39,25,30,24,15,89,61,16,30.28,30.12,4,1,0,0.00
2013-12-20,64,51,35,48,37,28,80,62,35,30.16,30.04,4,1,0,0.00
2013-12-21,67,60,55,63,55,48,89,84,72,30.04,29.79,9,1,0,0.17
2013-12-22,69,58,54,64,55,51,89,87,80,30.04,29.77,11,2,0,2.16
2013-12-23,54,43,30,51,37,25,89,78,65,30.33,30.03,8,2,0,0.03
2013-12-24,39,31,24,25,19,11,87,64,30,30.48,30.33,7,2,0,0.00
2013-12-25,50,30,19,26,19,14,85,65,28,30.44,30.29,4,1,0,0.00
2013-12-26,53,34,24,32,25,20,89,73,34,30.37,30.26,5,0,0,0.00
2013-12-27,56,34,24,31,22,8,89,68,15,30.45,30.32,5,0,0,0.00
2013-12-28,43,35,26,36,31,23,89,85,61,30.37,29.95,3,0,0,1.02
2013-12-29,50,42,35,43,38,32,89,86,74,30.04,29.86,3,1,0,0.56
2013-12-30,42,39,37,38,33,29,89,80,62,30.21,30.03,5,1,0,0.00
2013-12-31,44,33,27,32,26,23,89,77,47,30.42,30.20,5,1,0,0.00
2014-1-1,52,35,25,34,28,22,89,77,38,30.34,30.07,3,0,0,0.00
2014-1-2,49,38,23,45,31,12,89,78,61,30.21,29.79,17,3,0,0.34